Regional Weather Roundup
Issued by NWS

Home | Current Version | Previous Version | Text Only | Print | Product List | Glossary On
Versions: 1 2 3 4 5 6 7 8 9 10 11 12 13 14 15 16 17 18 19 20 21 22 23 24 25 26 27 28 29 30 31 32 33 34 35 36 37 38 39 40 41 42 43 44 45 46 47 48 49 50
000
ASUS45 KSLC 301610
RWRUT

UTAH REGIONAL WEATHER ROUNDUP
NATIONAL WEATHER SERVICE SALT LAKE CITY UT
1000 AM MDT SAT AUG 30 2014

UTZ001>011-023>025-301700-

NORTHERN UTAH

CITY           SKY/WX    TMP DP  RH WIND       PRES   REMARKS
HILL AFB       CLOUDY    68  45  43 SE10      29.97
LOGAN          SUNNY     67  54  63 CALM      29.92F
OGDEN          CLOUDY    69  45  41 S10       29.93F
PROVO AIRPORT  PTSUNNY   70  48  46 SE6       30.00S
SALT LAKE CITY CLOUDY    75  45  34 S9        29.93F
VERNAL         PTSUNNY   63  48  58 CALM      30.09F
WENDOVER       CLOUDY    75  34  22 NW3       29.96S
HEBER CITY     PTSUNNY   63  50  63 E3        30.06F
WEST JORDAN    MOSUNNY   75  48  38 S12       29.98S

$$

UTZ012>022-026-027-301700-

SOUTHERN UTAH

CITY           SKY/WX    TMP DP  RH WIND       PRES   REMARKS
BRYCE CANYON   MOSUNNY   67  39  35 CALM      30.28S
CEDAR CITY     PTSUNNY   80  35  19 SW10      30.10S
MILFORD        CLOUDY    74  36  25 S18       30.04S
MOAB/CYNLANDS  SUNNY     74  47  38 SE8       30.04S
PRICE          CLOUDY    68  43  40 SE3       30.13S
ST GEORGE      PTSUNNY   73  43  33 NW3       29.97S

$$

REGIONAL REPORTS     COLORADO/ARIZONA

CITY           SKY/WX    TMP DP  RH WIND       PRES   REMARKS
CRAIG, CO      MOSUNNY   69  47  45 E14       30.14F
GRAND JUNCTION MOSUNNY   69  48  47 SE13      30.09F
RIFLE          MOSUNNY   63  47  55 SE3       30.16F
MONTROSE       MOSUNNY   70  43  37 CALM      30.18F
CORTEZ         SUNNY     67  49  52 SE3       30.20F
PAGE, AZ       MOSUNNY   77  39  25 NW6       30.06R
GRAND CANYON   SUNNY     73  37  27 S6        30.25S
KINGMAN        SUNNY     88  38  17 SE8       29.98S
FLAGSTAFF      MOSUNNY   72  42  34 SW6       30.28R

$$

REGIONAL REPORTS    NEVADA/IDAHO/WYOMING

CITY           SKY/WX    TMP DP  RH WIND       PRES   REMARKS
LAS VEGAS, NV  PTSUNNY   90  34  13 CALM      29.81S
ELY            CLOUDY    64  40  41 SE5       30.14R
ELKO           MOSUNNY   70  35  27 SW6       30.03F
POCATELLO, ID  SUNNY     66  48  52 SW24G30   29.94R
BURLEY         MOSUNNY   66  45  46 W15G24    29.94S
EVANSTON, WY   PTSUNNY   64  42  44 SW12      30.13R
ROCK SPRINGS   MOSUNNY   70  37  29 W8        30.08S

$$



USA.gov is the U.S. government's official web portal to all federal, state and local government web resources and services.